[[{"header":{"parameterUnit":"m.s-1","parameterCategory":1,"la1":30.2991,"la2":30.254,"lo1":-89.0895,"lo2":-89.0444,"dy":0.0017,"dx":0.0017,"nx":28,"ny":28,"refTime":"2024-06-13T21:00:00:Z","depth":0,"parameterNumber":2,"parameterNumberName":"U-component_of_WINDS"},"data":[0,0,0,0,0,0,0,0,0,0,0,0,0,0,0,0,0,0,0,0,0,0,0,0,0,0,0,0,0,0,0,0,0,0,0,0,0,0,0,0,0,0,0,0,0,0,0,0,0,0,0,0,0,0,0,0,0,0,0.2438,0.2438,0,0.2505,0.2506,0.2507,0.2552,0.2552,0.2552,0.2553,0.2622,0.2623,0.2625,0,0,0,0,0,0,0,0,0,0,0,0,0,0.2347,0.2348,0.2438,0.2438,0.2439,0.2505,0.2506,0.2507,0.2552,0.2552,0.2552,0.2553,0.2621,0.2623,0.2625,0,0,0,0,0,0,0,0,0,0,0,0,0,0.2397,0.2348,0.2437,0.2469,0.2473,0.2505,0.2506,0.2507,0.2552,0.2552,0.2552,0.2553,0.2621,0.2623,0.2625,0.2631,0,0,0.2633,0.2634,0,0,0,0,0,0,0,0,0.2394,0.2401,0.2464,0.2467,0.2471,0.252,0.2499,0.2549,0.2551,0.2522,0.2553,0.2553,0.2588,0.2593,0.2605,0.2634,0.2637,0.2633,0.2634,0.2635,0.2636,0,0,0,0,0,0,0,0.2391,0.2398,0.2464,0.2465,0.2469,0.248,0.2488,0.2509,0.2551,0.2524,0.2528,0.2535,0.259,0.2602,0.2607,0.2638,0.2633,0.2635,0.2636,0.2637,0.2675,0.2674,0,0,0,0,0,0,0.2382,0.2395,0.2462,0.2466,0.2433,0.2482,0.249,0.2504,0.2551,0.2559,0.2535,0.2537,0.2598,0.2604,0.2609,0.2618,0.2635,0.2637,0.2639,0.2675,0.2675,0.2674,0,0,0,0,0,0,0.238,0.2388,0.2459,0.2431,0.2441,0.2483,0.2498,0.2505,0.2518,0.2559,0.2567,0.2539,0.2599,0.2606,0.2625,0.2621,0.2638,0.2641,0.2676,0.2675,0.2675,0.2636,0,0,0,0,0,0,0.2377,0.2387,0.2389,0.2431,0.2443,0.2474,0.2498,0.2506,0.2522,0.2525,0.2566,0.2573,0.2599,0.2621,0.2627,0.2625,0.2642,0.2676,0.2675,0.2675,0.2638,0.2634,0.2631,0,0,0,0,0,0.2374,0.2376,0.2389,0.2397,0.2447,0.2474,0.248,0.2511,0.2521,0.2524,0.255,0.2572,0.2621,0.2623,0.263,0.2628,0.2677,0.2676,0.2675,0.2639,0.2635,0.2631,0,0,0,0,0,0,0.2333,0.2382,0.2397,0.2413,0.2439,0.2481,0.2486,0.2505,0.2529,0.2531,0.2568,0.2577,0.2592,0.2612,0.2614,0.2635,0.2651,0.2652,0.2622,0.2618,0.2614,0.2609,0.2644,0,0,0,0,0,0.2325,0.2343,0.2385,0.2395,0.2407,0.2444,0.2457,0.2478,0.2507,0.2518,0.2546,0.2572,0.2594,0.2607,0.2629,0.2641,0.265,0.2643,0.264,0.2637,0.2636,0.2644,0.2641,0.2671,0.2671,0.2671,0,0,0.2311,0.234,0.2349,0.2388,0.241,0.2427,0.2453,0.247,0.2483,0.252,0.254,0.2561,0.2593,0.2609,0.2617,0.2626,0.263,0.2636,0.2633,0.2634,0.2642,0.2639,0.2637,0.2671,0.2671,0.2671,0,0,0.2292,0.2316,0.2327,0.2349,0.2382,0.2407,0.2409,0.2449,0.2464,0.2484,0.2512,0.2528,0.2565,0.2586,0.2602,0.2591,0.2611,0.2597,0.2579,0.2585,0.2583,0.2581,0.2576,0.2574,0.2597,0.2597,0.2597,0,0.2269,0.2296,0.233,0.2345,0.2361,0.2395,0.2406,0.2425,0.2464,0.2475,0.2484,0.253,0.2554,0.2574,0.2572,0.2584,0.2587,0.2592,0.2581,0.2579,0.2578,0.2573,0.2572,0.2595,0.2595,0.2595,0.2595,0,0.2266,0.2285,0.2289,0.2326,0.2342,0.2355,0.239,0.2403,0.2423,0.2446,0.2466,0.2496,0.2524,0.2531,0.2551,0.2554,0.2558,0.2574,0.259,0.2572,0.2569,0.2568,0.2592,0.2593,0.2593,0.2594,0,0,0.2223,0.2278,0.2279,0.2295,0.2335,0.235,0.2364,0.2392,0.2401,0.2427,0.244,0.247,0.2484,0.2502,0.2524,0.253,0.2518,0.2545,0.2546,0.2538,0.2523,0.251,0.2507,0.2532,0.2532,0.2532,0.252,0,0.221,0.2237,0.2267,0.2284,0.2301,0.2334,0.2346,0.2372,0.2394,0.2411,0.2436,0.2456,0.2474,0.2485,0.2492,0.2518,0.2516,0.252,0.2544,0.2544,0.2533,0.2506,0.2493,0.2479,0.2519,0.2519,0.2518,0,0.2198,0.2222,0.224,0.2277,0.2286,0.2296,0.2324,0.234,0.237,0.2385,0.2405,0.2429,0.2445,0.246,0.2483,0.2485,0.2497,0.2511,0.2511,0.2514,0.2529,0.2507,0.2476,0.2474,0.2517,0.2517,0.2517,0,0.2163,0.22,0.2216,0.2229,0.2273,0.228,0.2299,0.2329,0.2343,0.2367,0.2377,0.2402,0.2416,0.2435,0.2465,0.2474,0.2485,0.2502,0.2498,0.2497,0.2498,0.2497,0.2467,0.2507,0.2507,0.2507,0.2507,0,0.2145,0.2154,0.2201,0.221,0.2222,0.2256,0.2267,0.2288,0.2314,0.2328,0.2359,0.2371,0.2411,0.2428,0.2452,0.2466,0.2473,0.2485,0.2491,0.2482,0.248,0.2489,0.2491,0.2506,0.2507,0.2507,0.2507,0,0.2108,0.2139,0.2158,0.2198,0.2209,0.2215,0.225,0.226,0.2284,0.2301,0.2307,0.2345,0.2366,0.2398,0.243,0.2446,0.2456,0.2467,0.2446,0.245,0.2443,0.2442,0.2417,0.2415,0.2456,0.2456,0.2456,0,0.2093,0.2101,0.2142,0.2154,0.2171,0.2189,0.2204,0.2239,0.2253,0.2286,0.2292,0.2316,0.2337,0.237,0.24,0.2424,0.2435,0.2424,0.2439,0.2429,0.2433,0.2432,0.2433,0.242,0.242,0.2419,0.2419,0,0.2063,0.2079,0.2099,0.2124,0.2141,0.2162,0.2186,0.2193,0.2233,0.2247,0.2269,0.2285,0.2317,0.234,0.2368,0.2388,0.2409,0.2414,0.2414,0.2404,0.2391,0.2397,0.2436,0.2415,0.2415,0.2415,0.2416,0.2416,0.2037,0.2045,0.2075,0.2096,0.2117,0.2138,0.2149,0.2174,0.2193,0.2222,0.2241,0.2262,0.2291,0.2331,0.2349,0.2366,0.2375,0.2376,0.2375,0.2375,0.2371,0.2389,0.2371,0.2372,0.2372,0.2372,0.2372,0,0.2007,0.2028,0.2048,0.2079,0.2095,0.2115,0.2141,0.2154,0.2172,0.2197,0.2217,0.2242,0.2264,0.2296,0.2321,0.2328,0.2339,0.2333,0.2333,0.2336,0.2362,0.2358,0.2324,0.2324,0.2324,0.2324,0.2324,0.2324,0.1994,0.2009,0.2027,0.2053,0.2074,0.2094,0.2108,0.2127,0.2147,0.2174,0.2192,0.2213,0.2241,0.2268,0.2289,0.2298,0.2305,0.2296,0.2308,0.2331,0.2335,0.2339,0.2336,0.2298,0.2298,0.2281,0.2281,0.2281]},{"header":{"parameterUnit":"m.s-1","parameterCategory":1,"la1":30.2991,"la2":30.254,"lo1":-89.0895,"lo2":-89.0444,"dy":0.0017,"dx":0.0017,"nx":28,"ny":28,"refTime":"2024-06-13T21:00:00:Z","depth":0,"parameterNumber":3,"parameterNumberName":"V-component_of_WINDS"},"data":[0,0,0,0,0,0,0,0,0,0,0,0,0,0,0,0,0,0,0,0,0,0,0,0,0,0,0,0,0,0,0,0,0,0,0,0,0,0,0,0,0,0,0,0,0,0,0,0,0,0,0,0,0,0,0,0,0,0,2.4282,2.4282,0,2.427,2.427,2.427,2.4232,2.4232,2.4231,2.423,2.4219,2.4219,2.422,0,0,0,0,0,0,0,0,0,0,0,0,0,2.4272,2.4273,2.4282,2.4282,2.4281,2.427,2.427,2.427,2.4233,2.4232,2.4231,2.423,2.4218,2.4219,2.422,0,0,0,0,0,0,0,0,0,0,0,0,0,2.427,2.4273,2.4282,2.4262,2.426,2.427,2.427,2.427,2.4233,2.4232,2.423,2.4229,2.4218,2.4219,2.422,2.4249,0,0,2.4222,2.4222,0,0,0,0,0,0,0,0,2.427,2.427,2.4265,2.4263,2.4261,2.4251,2.4262,2.4263,2.4233,2.4243,2.423,2.4229,2.4231,2.423,2.4231,2.4249,2.4248,2.4222,2.4222,2.4223,2.4223,0,0,0,0,0,0,0,2.427,2.4271,2.4277,2.4265,2.4262,2.4253,2.4251,2.4262,2.4244,2.4242,2.4239,2.4238,2.4229,2.423,2.423,2.4248,2.4222,2.4223,2.4223,2.4223,2.4288,2.429,0,0,0,0,0,0,2.4273,2.4271,2.4277,2.4277,2.4263,2.4254,2.4252,2.4256,2.4244,2.4241,2.4239,2.4237,2.423,2.4229,2.423,2.4263,2.4223,2.4223,2.4224,2.4287,2.4289,2.429,0,0,0,0,0,0,2.4273,2.4274,2.4278,2.4273,2.4273,2.4256,2.426,2.4256,2.4257,2.4242,2.4238,2.4244,2.4229,2.4229,2.4244,2.4262,2.4224,2.4224,2.4286,2.4288,2.4289,2.4329,0,0,0,0,0,0,2.4273,2.4275,2.4285,2.4274,2.4273,2.4293,2.4261,2.4257,2.4258,2.4254,2.4245,2.4242,2.4228,2.4243,2.4245,2.4262,2.4225,2.4284,2.4286,2.4289,2.4326,2.4332,2.4337,0,0,0,0,0,2.4273,2.4297,2.4286,2.4287,2.4287,2.4294,2.4294,2.4276,2.426,2.427,2.4261,2.4242,2.426,2.4245,2.4247,2.4264,2.4283,2.4286,2.4289,2.4324,2.4331,2.4337,0,0,0,0,0,0,2.4312,2.4295,2.4283,2.4304,2.4301,2.4288,2.4301,2.4285,2.4286,2.4283,2.4261,2.4259,2.4278,2.4273,2.4257,2.4292,2.4268,2.4272,2.4294,2.4301,2.4307,2.4307,2.4225,0,0,0,0,0,2.4323,2.433,2.4315,2.4336,2.4334,2.4318,2.432,2.4307,2.4303,2.4301,2.4293,2.4289,2.4294,2.4297,2.4301,2.4325,2.4322,2.4338,2.4344,2.4348,2.4351,2.4363,2.437,2.43,2.43,2.43,0,0,2.4346,2.4338,2.4343,2.4343,2.4339,2.4347,2.4317,2.4327,2.4332,2.4303,2.4317,2.4311,2.4305,2.4325,2.4334,2.4322,2.437,2.4352,2.4356,2.4356,2.4367,2.4374,2.438,2.4302,2.4301,2.4301,0,0,2.4391,2.4386,2.4402,2.4398,2.4392,2.4381,2.4385,2.4374,2.4368,2.4382,2.436,2.4367,2.4375,2.4372,2.4372,2.4416,2.4399,2.4418,2.4447,2.4458,2.4464,2.4469,2.4484,2.449,2.4421,2.4421,2.4421,0,2.442,2.4431,2.4412,2.4423,2.4423,2.4397,2.4413,2.441,2.4406,2.4406,2.4393,2.4403,2.4397,2.4416,2.4427,2.4428,2.4431,2.4418,2.4465,2.4469,2.4473,2.4488,2.4493,2.4423,2.4423,2.4423,2.4422,0,2.4467,2.4474,2.4488,2.4484,2.4486,2.4499,2.4482,2.4486,2.4473,2.4464,2.4478,2.4471,2.4472,2.4475,2.4463,2.4492,2.4485,2.4469,2.4444,2.4483,2.4496,2.4501,2.4426,2.4426,2.4425,2.4424,0,0,2.4535,2.452,2.4526,2.4523,2.4514,2.452,2.4532,2.4533,2.4537,2.4535,2.4544,2.4552,2.4537,2.4536,2.4523,2.4534,2.4569,2.4516,2.4516,2.4525,2.46,2.4611,2.4618,2.4558,2.4559,2.4559,2.46,0,2.4578,2.4597,2.458,2.4603,2.4609,2.4585,2.4595,2.4591,2.4583,2.4587,2.4578,2.4583,2.4563,2.4562,2.4572,2.4562,2.4583,2.4559,2.4566,2.4566,2.4567,2.4625,2.4637,2.4676,2.4605,2.4606,2.4606,0,2.4629,2.4629,2.4652,2.4641,2.4643,2.4653,2.4652,2.4657,2.4652,2.4645,2.4644,2.4629,2.464,2.4617,2.4631,2.4616,2.4617,2.4613,2.4614,2.4613,2.4588,2.4625,2.4688,2.4693,2.4614,2.4613,2.4613,0,2.4676,2.4682,2.4696,2.4695,2.4683,2.469,2.4685,2.4679,2.468,2.468,2.4681,2.4682,2.4682,2.4684,2.4668,2.4653,2.4685,2.4661,2.4679,2.468,2.4686,2.4686,2.475,2.4689,2.4689,2.4689,2.4689,0,2.4724,2.4739,2.4716,2.4725,2.4741,2.4722,2.4738,2.4731,2.4726,2.4733,2.4712,2.4719,2.4699,2.4704,2.4692,2.4706,2.4707,2.4701,2.4698,2.4702,2.4703,2.4703,2.4699,2.469,2.469,2.469,2.469,0,2.4779,2.4764,2.4778,2.4766,2.4763,2.4775,2.4764,2.4772,2.4762,2.4771,2.4772,2.4757,2.4762,2.4747,2.4749,2.4741,2.4761,2.4754,2.4763,2.476,2.4779,2.4777,2.4844,2.4851,2.4787,2.4788,2.4788,0,2.481,2.4821,2.4809,2.4812,2.4809,2.4814,2.4815,2.4797,2.4799,2.4794,2.4802,2.4805,2.4807,2.4815,2.4804,2.4806,2.4798,2.4821,2.4798,2.4803,2.4797,2.4797,2.4797,2.4826,2.4827,2.4827,2.4828,0,2.4867,2.4859,2.4861,2.4861,2.4863,2.4862,2.486,2.4864,2.4845,2.4848,2.4853,2.4854,2.4856,2.4859,2.4858,2.4854,2.4838,2.4836,2.484,2.4844,2.4848,2.4846,2.4775,2.4834,2.4833,2.4833,2.4832,2.4832,2.491,2.4918,2.4911,2.4914,2.4911,2.4909,2.4915,2.4906,2.4909,2.4909,2.4899,2.4905,2.49,2.4897,2.4894,2.4899,2.4888,2.4895,2.4896,2.4898,2.4901,2.4849,2.4899,2.4899,2.4899,2.4899,2.4899,0,2.4964,2.4959,2.4962,2.4959,2.4962,2.4947,2.4943,2.4947,2.4952,2.4948,2.495,2.4955,2.4958,2.4947,2.4949,2.4955,2.4947,2.4956,2.4954,2.4954,2.4911,2.4906,2.4961,2.4961,2.4961,2.4961,2.4961,2.4961,2.4993,2.5006,2.4997,2.5008,2.5002,2.5008,2.5007,2.5006,2.5002,2.5009,2.5011,2.5004,2.4997,2.4998,2.5,2.4997,2.4998,2.5009,2.5003,2.4963,2.4957,2.4951,2.4947,2.5009,2.501,2.5046,2.5046,2.5046]}]]